Regional Weather Roundup
Issued by NWS

Home | Current Version | Previous Version | Graphics & Text | Print | Product List | Glossary On
Versions: 1 2 3 4 5 6 7 8 9 10 11 12 13 14 15 16 17 18 19 20 21 22 23 24 25 26 27
000
ASUS45 KCYS 200210
RWRWY

WYOMING REGIONAL WEATHER ROUNDUP
NATIONAL WEATHER SERVICE CHEYENNE WY
800 PM MDT THU APR 19 2018

NOTE:  "FAIR" INDICATES FEW OR NO CLOUDS BELOW 12,000 FEET
WITH NO SIGNIFICANT WEATHER AND/OR OBSTRUCTIONS TO VISIBILITY.

WYZ001-200300-
YELLOWSTONE NATIONAL PARK

CITY           SKY/WX    TMP DP  RH WIND       PRES   REMARKS
LK YELLOWSTONE   N/A     39  18  42 CALM      30.05S
W YELLOWSTONE  NOT AVBL

$$
WYZ002>013-054>058-071-098>099-200300-
NORTHERN WYOMING

CITY           SKY/WX    TMP DP  RH WIND       PRES   REMARKS
JACKSON        FAIR      48  21  34 N15       29.90F
CODY           FAIR      49  24  37 NE3       30.02S
GREYBULL       FAIR      53  31  42 NW8       29.96F
WORLAND        FAIR      52  31  44 N6        29.96S
SHERIDAN       FAIR      55  28  35 SE8       30.00S
BUFFALO        FAIR      52  26  36 CALM      30.04S
GILLETTE       FAIR      52  31  44 SE17G25   30.03F
HULETT         FAIR      48  32  53 E13       30.12S
NEWCASTLE      FAIR      50  27  40 SE17G30   30.09F

$$
WYZ014>020-022>026-101>103-200300-
CENTRAL WYOMING

CITY           SKY/WX    TMP DP  RH WIND       PRES   REMARKS
BIG PINEY      FAIR      52  -1  11 S12       29.88F
PINEDALE       CLOUDY    48   9  20 E9G16     29.91F
DUBOIS         FAIR      43  14  31 SE10      29.99S
LANDER         MOCLDY    50  24  36 NW7       29.94S
RIVERTON       CLOUDY    51  27  39 N15       29.95F
CASPER         FAIR      54  22  28 E15       29.93R
DOUGLAS        FAIR      53  27  36 SE21G29   29.99S

$$
WYZ021-027>030-104>119-200300-
SOUTHERN WYOMING

CITY           SKY/WX    TMP DP  RH WIND       PRES   REMARKS
EVANSTON       FAIR      51   7  16 SW5       29.83F
KEMMERER       FAIR      52   0  11 SE5       29.86S
FORT BRIDGER   FAIR      53   3  13 SE6       29.87S
ROCK SPRINGS   FAIR      49  15  25 NE13      29.85F
DIXON          FAIR      51  28  41 NE8       29.84S
RAWLINS        MOCLDY    54  16  22 NE15      29.88F
SARATOGA       CLOUDY    54  14  20 SE6       29.89F
LARAMIE        FAIR      47  18  31 SE31G45   29.95F
CHEYENNE       FAIR      49  21  33 SE23G31   30.02F
TORRINGTON     FAIR      54  28  36 SE18G26   30.03S
PINE BLUFFS    FAIR      50  21  32 SE24G31   30.04S

$$




USA.gov is the U.S. government's official web portal to all federal, state and local government web resources and services.